Dewpoint
72 72 73 72 72 73 73 73 73 73 73 73 73 73 72 72 73 73 73 73 72 71 71 71 71 70 69 70 71 71 71 72 72 73 73 73 73 74 75 74 74 73 73 73 73 73 73 73 72 73 72 72 72 72 72 72 72 72 72 71 71 71 71 71 72 72 73 74 74 73 73 73 73 73 73 73 73 72 72 72 72 71 70 69 70
73 73 73 72 72 72 73 73 73 73 73 73 73 73 73 73 73 74 73 72 71 69 70 69 69 68 69 70 71 71 71 72 72 73 73 73 72 75 75 74 74 73 73 73 73 73 73 73 73 72 72 73 72 72 72 72 72 72 72 71 72 71 71 72 73 73 73 74 74 74 74 73 74 73 73 73 73 73 72 72 71 71 70 69 69
73 73 73 73 72 72 72 72 73 73 74 73 74 74 74 74 74 74 73 71 70 70 68 68 68 68 69 70 70 71 71 72 72 73 73 73 73 73 75 75 74 74 73 73 74 73 73 73 73 72 72 73 73 73 73 73 72 72 72 72 72 73 73 73 73 73 74 74 74 74 74 73 73 73 73 73 73 73 73 72 72 72 71 69 69
73 74 74 73 72 73 72 72 72 73 75 73 74 75 76 75 76 75 75 72 71 72 69 67 67 67 69 69 70 70 71 71 72 72 73 73 73 73 73 74 75 74 74 74 74 74 74 74 73 73 73 73 73 73 73 73 72 72 72 73 73 73 73 73 73 73 73 74 74 74 74 73 73 73 73 73 73 73 73 72 71 71 71 69 69
73 74 75 73 73 73 72 73 72 72 74 75 74 74 74 74 74 76 74 73 72 72 71 68 66 67 68 68 69 70 70 71 71 71 72 73 73 73 73 74 74 74 75 74 74 74 74 74 74 74 73 73 73 73 73 73 73 73 73 73 73 74 74 74 73 73 74 74 74 74 74 73 73 73 73 73 73 73 73 72 71 71 71 71 70
74 74 74 73 73 72 72 72 72 73 75 75 73 73 73 73 74 72 76 74 71 70 69 67 66 68 66 66 68 69 70 70 70 71 72 72 73 73 73 73 74 74 74 75 75 75 75 74 74 74 74 74 74 74 73 73 74 73 73 73 74 74 74 74 74 74 74 74 74 73 73 74 73 73 73 73 73 73 73 72 72 72 72 71 71
75 75 76 73 73 72 72 72 72 74 75 74 73 73 74 72 74 71 72 72 71 71 66 66 67 66 66 66 66 68 69 69 70 70 71 71 72 73 73 73 74 73 74 73 76 75 75 75 75 75 75 75 74 74 74 75 74 74 74 74 74 74 74 74 74 75 75 75 75 74 73 73 73 73 73 73 73 73 73 73 73 73 73 72 72
75 76 76 74 73 73 72 73 73 74 73 74 74 73 73 74 74 73 71 71 72 70 69 68 68 66 68 68 67 69 67 69 69 70 71 72 72 72 73 73 73 73 75 74 74 75 76 75 75 75 75 75 75 75 75 75 75 75 75 75 75 75 75 75 75 75 75 75 75 75 74 74 74 74 74 74 74 74 74 74 74 74 74 73 73
75 76 74 74 73 73 73 74 75 74 73 74 74 75 73 73 73 76 73 71 70 68 70 69 68 68 70 68 67 68 65 67 69 70 71 72 72 72 72 73 74 76 74 74 74 74 75 76 76 76 76 76 76 76 76 76 76 76 76 75 75 75 75 75 75 75 75 76 76 76 76 75 75 75 75 75 75 75 75 75 75 75 74 74 74
75 75 74 74 74 73 74 74 75 74 73 73 73 74 74 73 71 74 75 72 70 69 69 69 69 70 70 68 70 68 66 67 69 73 71 71 72 72 72 72 73 73 74 74 73 73 73 75 77 77 77 77 76 77 76 77 76 76 76 76 76 76 76 76 76 76 76 77 76 76 77 76 76 76 76 76 76 76 76 76 76 75 75 75 75
75 76 73 74 74 74 74 75 75 74 72 73 72 74 75 74 73 73 76 74 71 71 70 73 71 69 68 68 70 70 69 69 70 70 69 70 71 72 72 72 73 73 74 74 73 73 72 73 74 75 76 77 77 77 77 77 77 77 77 76 76 76 76 76 76 76 77 77 77 77 77 77 77 76 77 77 77 77 77 77 76 76 76 76 76
75 76 75 74 74 74 74 75 75 73 72 71 71 73 72 72 72 74 74 75 75 73 73 73 69 67 71 69 69 68 69 71 71 68 69 69 69 72 71 72 72 73 74 74 74 73 72 72 74 73 75 75 77 78 78 78 78 78 77 77 77 76 76 76 76 77 77 77 78 78 78 78 78 77 77 77 78 78 78 77 77 77 77 77 77
76 76 75 76 75 74 74 74 74 74 73 72 72 73 73 74 75 76 74 72 72 72 72 71 67 66 67 68 67 70 72 71 68 68 68 68 67 70 70 70 70 71 72 73 74 73 73 72 72 72 72 73 73 76 78 78 78 78 78 78 77 77 77 77 77 77 77 78 78 78 78 78 78 78 78 78 78 78 78 78 77 77 77 77 77
76 76 75 76 74 73 74 74 73 73 73 74 73 77 75 75 75 73 74 72 71 74 72 68 66 64 65 65 67 67 71 72 68 67 67 68 67 68 67 68 68 68 69 71 72 73 73 72 72 71 71 72 72 72 73 75 77 78 78 78 78 77 77 77 78 77 78 78 78 78 78 78 78 78 78 78 78 78 78 78 78 77 77 77 77
76 76 76 76 74 74 74 74 74 74 73 72 73 74 75 74 74 73 72 72 73 74 72 69 66 70 68 65 63 63 67 67 67 68 67 66 66 66 67 67 67 68 68 69 70 72 72 72 72 71 71 71 71 72 72 74 73 76 77 77 78 78 78 78 78 78 79 79 79 79 79 78 78 78 78 78 78 78 78 78 78 77 77 77 77
76 76 77 76 75 75 75 75 74 75 73 72 73 73 74 73 74 75 72 69 70 69 73 71 72 67 63 64 63 64 60 61 63 65 67 64 64 64 66 65 66 67 69 68 69 70 71 72 72 73 72 72 72 73 73 72 73 76 78 78 77 77 78 79 78 78 78 79 79 78 78 78 78 78 78 78 78 78 78 78 77 77 77 77 77
76 76 76 76 75 75 75 75 74 75 74 73 73 73 74 73 74 74 72 70 69 69 70 73 72 70 69 65 62 61 61 61 65 63 66 64 61 62 67 65 65 66 68 66 66 68 70 70 72 73 73 73 73 74 74 73 73 76 76 79 79 78 77 78 78 79 78 77 78 78 78 78 78 78 78 78 78 78 78 77 77 77 77 77 77
76 76 76 77 76 75 75 75 74 75 76 74 74 74 74 74 73 73 74 73 70 67 67 71 73 76 72 66 65 62 62 63 60 58 65 70 62 60 63 65 63 65 67 66 65 66 69 69 70 71 72 73 73 74 74 74 76 75 75 76 78 79 79 77 77 78 78 77 78 78 78 78 78 78 78 78 78 78 77 77 77 77 77 77 77
75 75 76 77 76 76 75 75 76 75 76 74 73 74 75 75 74 74 74 74 73 68 67 68 68 71 74 73 73 74 68 63 60 65 56 58 64 59 61 63 61 63 65 65 65 66 66 68 68 69 69 70 71 72 73 74 77 77 77 78 78 79 79 78 77 78 78 77 77 77 78 78 78 78 78 77 78 78 78 78 77 77 77 77 77
74 75 76 77 76 76 75 76 75 76 76 74 74 74 75 75 75 75 74 76 72 70 70 71 66 68 75 73 74 75 71 69 66 61 59 56 56 62 61 60 60 62 64 64 63 62 64 68 68 68 69 70 71 71 72 73 75 76 77 77 78 79 79 78 78 78 78 78 76 77 78 78 78 78 77 78 78 78 78 77 77 77 77 77 77
75 76 76 76 78 76 76 75 75 75 77 75 74 75 75 74 74 73 72 73 74 73 72 69 70 69 69 68 72 72 71 70 70 70 66 62 62 62 59 59 60 60 60 61 59 61 65 66 67 69 71 72 72 72 75 75 74 74 77 79 80 79 79 78 77 78 77 77 77 78 78 78 78 78 78 78 78 78 78 77 77 77 77 77 76
74 76 75 76 77 76 76 75 75 75 76 75 74 74 75 74 74 73 73 73 74 74 72 72 73 71 70 70 69 70 68 68 68 67 65 63 60 60 63 57 56 58 62 62 60 61 62 65 67 69 70 71 73 74 75 75 75 74 75 79 79 79 79 77 76 76 77 77 77 78 78 78 78 78 78 78 78 78 77 77 77 77 77 76 76
74 76 75 76 76 77 76 75 75 76 76 75 74 73 75 74 74 73 74 74 72 73 74 74 75 72 70 72 70 69 66 65 64 67 64 63 62 62 65 63 55 57 59 61 64 61 63 64 64 66 69 71 73 74 74 74 76 75 76 77 78 78 78 77 76 76 75 75 77 77 77 77 78 78 78 78 77 77 77 77 77 77 76 76 75
74 74 75 76 76 76 77 76 76 75 75 75 73 74 75 74 73 73 73 73 73 75 74 74 73 71 69 70 70 72 72 70 70 68 67 65 63 62 64 65 60 60 61 65 65 60 64 64 65 67 69 72 73 73 72 73 75 76 75 76 75 76 77 77 77 76 75 75 74 75 75 76 76 77 77 77 77 77 77 77 77 76 76 75 74
73 74 74 74 76 75 75 75 75 75 75 74 74 75 74 74 73 73 73 73 73 74 71 72 73 72 70 70 71 70 68 70 70 68 69 68 65 62 63 63 60 58 58 60 57 62 64 66 69 70 71 72 73 76 75 73 72 76 76 74 74 75 76 77 77 76 75 75 75 75 76 76 77 77 77 77 77 77 77 76 76 76 76 74 73
73 73 74 74 75 75 75 75 75 75 75 74 75 75 75 74 73 73 74 74 73 73 73 72 73 73 73 71 70 70 70 71 69 69 67 65 64 63 64 66 67 65 64 61 62 61 62 68 70 70 72 73 73 73 73 74 73 75 76 71 71 73 75 75 77 77 76 75 74 75 75 76 77 77 77 77 77 77 77 76 76 75 75 73 72
73 74 74 74 74 74 75 75 74 74 75 75 76 75 76 75 74 73 73 74 73 73 73 73 72 71 71 72 73 73 72 72 70 69 68 66 66 66 64 60 61 66 67 64 62 63 63 66 69 70 69 73 73 73 75 74 74 74 75 74 71 73 74 74 75 76 76 75 75 74 74 75 76 77 77 77 76 77 77 76 76 75 73 72 71
73 74 74 74 74 74 75 76 74 75 76 75 75 76 76 75 74 74 73 76 73 73 73 73 72 71 71 71 73 69 71 71 73 72 72 71 71 70 68 65 61 59 64 62 66 63 66 66 69 71 71 71 71 74 76 76 73 75 76 73 71 71 73 74 74 74 74 74 74 74 74 75 75 76 76 76 76 76 77 77 75 74 74 72 71
73 74 74 74 74 74 75 76 76 76 76 76 76 76 75 76 74 74 74 75 74 73 74 73 73 72 72 71 71 71 71 73 73 73 74 72 71 71 70 67 66 63 64 62 63 64 65 67 67 68 72 74 74 74 73 74 75 74 72 71 70 72 73 72 72 72 73 73 73 73 74 74 75 75 76 76 75 75 75 76 76 74 73 71 70
74 73 74 74 74 76 75 76 76 76 76 76 76 76 75 75 75 75 75 75 74 74 74 74 73 73 74 73 71 71 71 72 70 72 73 73 72 72 71 71 70 66 65 63 63 66 66 69 72 69 71 72 74 74 74 73 74 75 73 71 71 72 72 72 72 72 72 72 72 72 73 74 74 75 74 74 74 74 75 76 75 74 73 72 72
75 74 74 74 74 74 75 75 76 76 76 75 76 76 75 74 75 75 75 75 74 73 74 74 74 74 73 73 73 72 71 70 71 72 72 74 72 72 73 73 72 70 70 65 64 66 69 67 69 71 70 71 71 72 71 72 74 74 74 72 72 72 72 73 72 72 71 71 71 71 71 72 72 72 72 72 72 72 73 75 75 74 73 72 69
74 74 74 74 74 74 74 75 75 76 75 75 76 76 76 75 75 76 75 75 74 73 74 75 75 74 73 73 73 73 71 72 73 73 72 72 72 70 73 72 72 72 71 67 64 66 70 70 70 71 72 69 71 71 71 73 73 75 73 73 74 74 74 73 72 71 71 70 70 70 69 69 69 70 71 72 72 73 74 74 74 73 73 72 71
73 73 73 74 74 74 73 75 75 75 75 75 75 76 76 75 75 75 75 75 74 74 75 75 75 74 74 73 74 74 74 73 72 73 72 71 72 71 73 70 69 71 70 68 65 67 67 71 72 71 72 73 70 73 72 72 73 73 75 75 75 75 74 74 74 72 71 69 68 68 68 69 69 69 71 72 71 73 73 74 73 73 72 70 69
72 73 73 73 74 74 73 74 75 75 75 75 75 76 76 75 74 76 76 75 75 74 74 74 74 75 74 73 73 73 74 73 72 72 72 72 71 70 70 72 69 69 70 67 67 65 65 68 69 71 71 73 70 72 72 72 73 74 73 73 73 73 73 73 72 72 72 71 68 67 67 67 68 69 70 70 70 71 72 72 71 70 69 69 66
71 73 72 72 73 73 73 73 74 74 75 75 75 75 76 75 74 75 75 75 74 74 74 74 74 74 73 73 73 73 74 73 72 71 72 72 71 70 69 70 70 70 70 69 67 67 67 67 69 70 70 71 71 70 72 74 74 73 73 72 72 73 74 73 73 72 70 69 68 68 67 67 67 68 68 69 69 69 70 69 68 68 67 66 64
70 71 72 72 73 73 73 73 73 73 74 74 74 75 75 75 75 75 75 75 74 74 74 74 74 74 73 73 73 73 73 73 72 72 71 71 71 71 70 70 69 69 69 71 70 68 68 67 68 68 70 70 71 73 74 74 73 73 73 73 73 73 73 73 73 72 70 68 68 67 67 66 67 67 67 67 67 67 66 66 66 66 65 64 64
69 70 71 72 72 72 72 72 72 72 72 73 73 74 74 75 75 74 74 74 74 74 74 74 76 74 74 73 73 73 73 72 72 72 72 71 71 71 70 70 70 70 70 71 71 71 69 68 69 70 71 71 72 73 73 73 73 72 72 72 73 73 74 74 73 73 71 69 69 68 67 66 67 67 66 67 66 65 65 65 65 65 65 63 62
68 69 70 71 72 72 72 72 71 71 72 72 73 73 73 74 74 74 74 74 74 73 73 74 74 75 74 73 73 73 73 73 72 72 72 72 71 70 70 70 71 71 70 69 70 70 70 69 69 69 69 70 71 72 72 72 72 71 72 73 73 73 73 73 73 72 73 73 72 71 69 67 67 66 66 67 66 65 65 65 64 64 63 62 60
66 67 68 70 71 71 72 72 71 72 71 72 72 72 72 73 74 74 73 73 73 73 73 73 73 74 74 73 73 73 72 72 72 72 72 72 72 71 70 70 70 70 70 70 69 69 70 69 69 70 71 72 72 71 71 72 72 73 72 72 72 72 72 72 73 73 73 73 72 70 70 70 69 69 66 64 64 64 65 64 64 63 63 61 59
66 65 66 68 69 70 71 71 71 72 71 72 72 72 72 71 72 73 73 73 72 72 72 73 73 73 73 73 73 73 72 72 72 72 71 70 71 71 70 70 70 69 69 69 69 70 69 69 69 69 69 70 70 72 73 72 71 71 71 72 69 68 69 70 71 71 72 73 72 70 70 70 69 68 65 65 66 66 65 65 66 66 65 63 60
66 65 65 67 68 69 70 70 70 71 71 71 72 72 71 71 71 71 72 72 72 72 71 71 72 72 72 71 71 71 72 76 75 74 74 73 71 70 70 70 70 69 69 69 68 68 68 68 68 69 69 70 71 71 71 70 71 70 71 68 68 69 70 71 72 73 74 73 73 72 72 73 72 71 71 70 71 69 68 67 67 68 67 63 61
69 68 67 65 66 68 69 69 70 70 70 71 72 70 71 71 71 70 70 71 71 71 71 71 70 70 70 70 70 74 76 75 73 72 71 72 75 72 70 70 70 69 69 68 68 68 68 67 67 67 68 69 69 70 70 70 70 70 70 70 69 70 70 70 70 71 73 73 72 72 72 72 72 72 72 72 72 72 72 70 69 68 67 64 63
70 70 68 66 65 65 68 69 69 69 69 70 69 66 67 69 71 71 71 71 71 70 70 70 70 69 69 69 69 71 75 77 74 71 69 69 69 72 73 73 73 69 68 68 68 69 69 68 68 68 69 68 69 70 70 70 70 70 70 69 69 69 68 67 67 69 70 73 71 68 69 70 71 70 71 72 72 73 73 72 70 68 65 64 63
70 70 68 67 67 65 65 67 68 69 69 70 65 64 65 65 69 71 70 70 70 70 70 69 69 69 69 68 68 67 68 68 69 71 73 71 68 68 68 70 71 72 71 69 68 69 69 69 69 69 69 69 69 70 70 70 70 70 69 69 68 67 67 67 66 65 67 73 69 67 67 68 69 70 71 72 73 74 74 71 68 67 66 64 63
71 70 69 68 68 67 65 65 66 68 69 67 64 63 64 64 64 69 70 70 70 70 70 69 69 68 68 69 67 67 66 72 73 69 68 69 70 68 67 67 68 68 67 67 69 70 70 70 70 70 70 70 70 71 71 70 69 69 69 69 68 67 67 66 66 66 67 70 68 67 67 68 70 69 70 71 72 72 72 69 68 67 66 65 64
71 70 70 69 69 69 68 66 66 66 68 68 63 62 62 62 63 65 70 70 70 70 70 69 69 68 68 68 68 68 67 67 67 67 68 69 70 70 70 70 69 70 69 67 67 68 70 71 71 70 70 71 70 70 72 71 70 70 70 69 69 68 68 68 69 68 69 73 69 68 68 68 69 70 71 71 71 70 70 68 66 65 65 64 64
72 71 70 69 69 70 69 69 68 66 65 65 62 60 60 60 61 64 69 70 70 70 70 70 69 69 68 68 67 67 67 67 67 67 66 65 66 68 69 69 69 68 68 67 68 68 68 68 70 71 71 71 71 72 72 73 72 72 72 71 70 70 70 70 70 71 71 72 71 69 68 69 69 68 70 70 70 70 71 68 66 65 65 63 63
73 73 72 71 71 70 70 69 69 68 65 62 60 60 59 59 61 66 68 69 70 70 70 70 70 69 69 68 68 67 67 67 69 67 69 67 65 64 65 66 67 68 68 69 65 66 68 68 68 68 68 69 67 69 69 68 68 68 71 70 69 70 69 68 67 67 67 68 72 72 70 69 71 70 70 71 71 71 71 70 66 65 64 62 62
72 73 73 73 72 72 71 71 70 69 70 67 61 57 57 58 60 66 67 68 69 69 70 70 70 70 69 68 68 67 67 67 67 62 63 68 66 65 64 63 64 64 65 67 65 62 62 62 62 63 62 62 62 61 60 60 64 65 65 65 64 65 65 64 64 64 65 67 70 72 70 69 71 70 70 71 70 69 67 67 68 65 62 60 60
72 72 73 73 73 73 72 71 70 69 69 67 60 58 55 55 61 64 66 67 67 68 69 69 70 69 69 72 74 68 66 66 64 61 61 65 65 65 65 64 64 64 65 66 67 68 62 60 60 61 61 62 62 61 62 61 61 64 64 64 65 65 64 64 63 64 65 67 68 72 68 70 71 67 67 66 66 67 67 68 69 64 60 59 58
72 72 73 72 72 72 72 71 73 73 72 69 61 59 57 54 58 62 64 66 66 67 68 68 69 69 69 71 73 70 68 66 61 60 60 64 65 65 65 64 64 64 64 65 66 67 68 69 69 68 68 67 67 66 67 64 64 69 66 66 66 65 65 64 64 64 64 65 66 71 68 67 66 66 65 64 62 64 67 69 68 63 61 62 61